Find Starlink 11564

NORAD ID: 62913 Int'l Des: 2025-027 Owner: SPXS Country: US Constellation: starlink operational
LEOCIRCULAR

現在のビュー

3D地球を読み込み中...

About Starlink 11564

Starlink 11564 (NORAD 62913) is a starlink constellation satellite (v2 mini d2c) launched Feb 8, 2025 by SPXS of US. It operates in LEO, CIRCULAR orbit with a mass of 960.00 kg.

Starlink 11564について

説明を読み込み中...

次回通過

Passes for default location (London). Set your location on the main map for personalized predictions.

高度履歴

Loading altitude history...

軌道要素

1 62913U 25027G 26170.50925069 .00149661 00000-0 11459-2 0 9998
2 62913 43.0004 94.1157 0001241 268.2983 91.7743 15.70903501 79162
Epoch: Jun 19, 2026 • Age: 11 hours

現在のステータス

高度 357.8 km
速度 7.70 km/s
衛星直下点 33.76°N, 33.88°W
打ち上げ日 Feb 8, 2025
運用期間 1.3 years
タイプ internet

技術仕様

分類 Payload
質量 960.00 kg
乾燥質量 910.00 kg
総質量 960.00 kg
長さ 0.30 m
直径 4.10 m
スパン 29.00 m
形状 Box + pan
製造者 SPXS
バスタイプ Starlink V2MD
フェーズステータス In Orbit
所有者/国 SPXS/US

Most Searched